Tracking 23732 objects as of 28-Sep-2021
HD Live streaming from Space Station
objects crossing your sky now

DMSP 5D-2 F13 DEB

Track DMSP 5D-2 F13 DEB now!
10-day predictions


NORAD ID: 42278
Int'l Code: 1995-015GU
Perigee: 826.7 km
Apogee: 890.2 km
Inclination: 98.8 °
Period: 102.0 minutes
Semi major axis: 7229 km
RCS: Unknown
Launch date: March 24, 1995
Source: United States (US)
Launch site: AIR FORCE WESTERN TEST RANGE (AFWTR)

Note: This is SATELLITE DEBRIS
aabbcc
Your satellite tracking list
Your tracking list is empty




NASA's NSSDC Master Catalog

Two Line Element Set (TLE):
1 42278U 95015GU  21270.70267658  .00001660  00000-0  91641-3 0  9993
2 42278  98.8432 248.2411 0043902 223.6134 136.1565 14.12347635321638
Source of the keplerian elements: AFSPC